DW0152 Weather Reports


Display with metric or nautical units.
time (UTC)temp
F
wind
direction
speed
MPH
gust
MPH
rain 1hr
in
rain 24hr
in
rain mn
in
humidity
%
barometer
mb
20260505152031 52 0 0.0 2.0 0.00 0.33 0.14 95 1009.3
20260505151558 52 0 0.0 1.0 0.00 0.33 0.14 95 1009.2
20260505151031 51 0 0.0 2.0 0.00 0.33 0.14 95 1009.3
20260505150537 51 0 0.0 2.0 0.00 0.33 0.14 95 1009.4
20260505140531 51 0 0.0 2.0 0.00 0.33 0.14 95 1009.7
20260505125036 51 0 0.0 2.0 0.00 0.33 0.14 95 1010.3
20260505124549 51 0 0.0 1.0 0.00 0.33 0.14 95 1010.1
20260505124032 51 0 0.0 2.0 0.00 0.33 0.14 95 1010.3
20260505123538 51 0 0.0 2.0 0.00 0.33 0.14 95 1010.2
20260505123047 51 0 0.0 2.0 0.00 0.33 0.14 95 1010.2
20260505122538 51 0 0.0 2.0 0.00 0.33 0.14 95 1010.2
20260505122034 51 0 0.0 2.0 0.00 0.33 0.14 95 1010.1
20260505121558 51 0 0.0 1.0 0.00 0.33 0.14 95 1010.3
20260505121036 51 0 0.0 1.0 0.00 0.33 0.14 95 1010.3
20260505120535 51 0 0.0 2.0 0.00 0.33 0.14 95 1010.2
20260505120048 51 0 0.0 2.0 0.00 0.33 0.14 95 1010.3
20260505115537 51 0 0.0 2.0 0.00 0.33 0.14 95 1010.4
20260505115034 52 0 0.0 2.0 0.00 0.33 0.14 95 1010.3
20260505114548 52 0 0.0 2.0 0.00 0.33 0.14 95 1010.3
20260505114036 52 0 0.0 2.0 0.00 0.33 0.14 95 1010.4
20260505113534 51 0 0.0 1.0 0.00 0.33 0.14 95 1010.4
20260505113047 51 0 0.0 1.0 0.00 0.33 0.14 95 1010.4
20260505112532 52 0 0.0 2.0 0.00 0.33 0.14 95 1010.4
20260505112036 51 0 0.0 2.0 0.00 0.33 0.14 96 1010.4
20260505111546 51 0 0.0 5.0 0.00 0.33 0.14 96 1010.6
20260505111036 51 0 0.0 5.0 0.00 0.33 0.14 96 1010.6
20260505110536 51 0 0.0 2.0 0.00 0.33 0.14 96 1010.6
20260505100538 50 5 0.0 1.0 0.00 0.33 0.14 95 1010.5
20260505100045 50 0 0.0 3.0 0.00 0.33 0.14 95 1010.6
20260505095535 50 0 0.0 3.0 0.00 0.33 0.14 95 1010.6
20260505095036 50 0 0.0 2.0 0.00 0.33 0.14 95 1010.6
20260505094545 51 0 0.0 2.0 0.00 0.33 0.14 95 1010.6
20260505094035 51 0 0.0 2.0 0.00 0.33 0.14 95 1010.5
20260505093535 51 0 0.0 2.0 0.00 0.33 0.14 95 1010.6
20260505093044 51 0 0.0 1.0 0.00 0.33 0.14 95 1010.5
20260505092535 51 0 0.0 1.0 0.00 0.33 0.14 95 1010.5
20260505092034 51 312 0.0 1.0 0.00 0.33 0.14 95 1010.4
20260505091544 51 0 0.0 2.0 0.00 0.33 0.14 95 1010.6
20260505091037 51 0 0.0 2.0 0.00 0.33 0.14 95 1010.5
20260505090535 51 0 0.0 1.0 0.00 0.33 0.14 95 1010.6
20260505090059 51 0 0.0 1.0 0.00 0.33 0.14 95 1010.7
20260505085536 50 0 0.0 2.0 0.00 0.33 0.14 95 1010.6
20260505085035 50 0 0.0 2.0 0.00 0.33 0.14 95 1010.7
20260505084551 50 0 0.0 3.0 0.00 0.33 0.14 95 1010.6
20260505084036 50 0 0.0 3.0 0.00 0.33 0.14 95 1010.7
20260505083533 51 0 0.0 2.0 0.00 0.33 0.14 95 1010.7
20260505083045 51 0 0.0 2.0 0.00 0.33 0.14 95 1010.7
20260505082534 51 30 0.0 2.0 0.00 0.33 0.14 95 1010.7
20260505082035 51 0 0.0 2.0 0.00 0.33 0.14 95 1010.7
20260505081545 51 29 0.0 2.0 0.00 0.33 0.14 95 1010.8
20260505081036 51 0 0.0 2.0 0.00 0.33 0.14 95 1010.8
20260505080534 51 0 0.0 2.0 0.00 0.33 0.14 95 1010.8
20260505080042 51 0 0.0 2.0 0.00 0.33 0.14 95 1010.6
20260505075537 51 0 0.0 2.0 0.00 0.33 0.14 95 1010.6
20260505075035 51 11 0.0 2.0 0.00 0.33 0.14 95 1010.6
20260505074541 51 0 0.0 2.0 0.00 0.33 0.14 95 1010.6
20260505074034 51 0 0.0 2.0 0.00 0.33 0.14 95 1010.8
20260505073534 51 0 0.0 1.0 0.00 0.33 0.14 95 1010.7
20260505073048 51 0 0.0 1.0 0.00 0.33 0.14 95 1010.7
20260505072535 51 0 0.0 1.0 0.00 0.33 0.14 95 1010.8
20260505072035 51 0 0.0 1.0 0.00 0.33 0.14 95 1010.8
20260505071546 51 0 0.0 1.0 0.00 0.33 0.14 95 1010.8
20260505071035 51 0 0.0 1.0 0.00 0.33 0.14 95 1010.7
20260505070538 51 0 0.0 1.0 0.00 0.33 0.14 95 1010.8
20260505070045 51 0 0.0 3.0 0.00 0.33 0.14 95 1010.7
20260505065535 51 0 0.0 3.0 0.00 0.33 0.14 95 1010.6
20260505065034 51 0 0.0 3.0 0.00 0.33 0.14 95 1010.7
20260505064549 51 0 0.0 2.0 0.00 0.33 0.14 95 1010.6
20260505064034 51 0 0.0 2.0 0.00 0.33 0.14 95 1010.7
20260505063534 51 352 0.0 2.0 0.00 0.33 0.14 95 1010.7
20260505063048 51 0 0.0 2.0 0.00 0.33 0.14 95 1010.8
20260505062534 51 0 0.0 2.0 0.00 0.33 0.14 95 1010.7
20260505062034 51 0 0.0 1.0 0.00 0.33 0.14 95 1010.8
20260505061547 51 0 0.0 2.0 0.00 0.33 0.14 95 1010.9
20260505061035 51 0 0.0 3.0 0.00 0.33 0.14 95 1011.0
20260505060534 51 0 0.0 3.0 0.00 0.33 0.14 95 1010.9
20260505060049 51 20 0.0 3.0 0.00 0.33 0.14 95 1010.9
20260505055535 51 0 0.0 3.0 0.00 0.33 0.14 95 1010.9
20260505055034 51 0 0.0 2.0 0.00 0.33 0.14 95 1010.9
20260505054547 51 0 0.0 2.0 0.00 0.33 0.14 95 1010.9
20260505054035 51 0 0.0 2.0 0.00 0.33 0.14 95 1010.9
20260505053533 52 0 0.0 2.0 0.00 0.33 0.14 95 1010.8
20260505053048 52 24 0.0 2.0 0.00 0.33 0.14 95 1010.8
20260505052535 52 0 0.0 2.0 0.00 0.33 0.14 95 1010.7
20260505052035 52 0 0.0 3.0 0.00 0.33 0.14 95 1010.7
20260505051542 52 0 0.0 3.0 0.00 0.33 0.14 95 1010.7
20260505051035 52 26 0.0 2.0 0.00 0.33 0.14 95 1010.7
20260505050535 52 0 0.0 2.0 0.00 0.33 0.14 95 1010.7
20260505041543 52 0 0.0 3.0 0.03 0.33 0.14 95 1010.7
20260505041035 52 0 0.0 3.0 0.03 0.33 0.14 95 1010.8
20260505040535 53 52 0.0 3.0 0.03 0.33 0.14 94 1010.8
20260505040050 53 0 0.0 2.0 0.03 0.33 0.14 94 1010.9
20260505035534 53 5 0.0 1.0 0.03 0.33 0.14 94 1010.8
20260505035034 53 0 0.0 1.0 0.03 0.33 0.14 95 1011.0
20260505034546 53 5 0.0 1.0 0.03 0.33 0.14 95 1010.9
20260505034036 53 0 0.0 2.0 0.03 0.33 0.14 95 1010.9
20260505033535 53 0 0.0 2.0 0.03 0.33 0.14 95 1010.9
20260505033102 53 0 0.0 1.0 0.03 0.33 0.14 95 1010.9
20260505032536 53 0 0.0 1.0 0.01 0.32 0.13 94 1010.9
20260505032035 53 0 0.0 2.0 0.00 0.31 0.12 94 1010.9
20260505031545 53 0 0.0 2.0 0.00 0.30 0.11 94 1010.8
20260505031035 53 0 0.0 1.0 0.00 0.30 0.11 94 1010.9
20260505030536 53 0 0.0 2.0 0.00 0.30 0.11 94 1010.9
20260505030044 53 0 0.0 2.0 0.00 0.30 0.11 94 1010.9
20260505025535 53 0 0.0 3.0 0.00 0.30 0.11 94 1011.0
20260505025034 53 0 0.0 3.0 0.00 0.30 0.11 94 1010.9
20260505024539 53 0 0.0 2.0 0.00 0.30 0.11 94 1010.9
20260505024034 54 0 0.0 2.0 0.00 0.30 0.11 94 1011.0
20260505023534 54 0 0.0 2.0 0.00 0.30 0.11 94 1010.9
20260505023059 54 0 0.0 2.0 0.00 0.30 0.11 94 1011.0
20260505022535 54 350 0.0 1.0 0.00 0.30 0.11 94 1011.1
20260505022034 54 0 0.0 1.0 0.00 0.30 0.11 94 1011.1
20260505021545 54 0 0.0 1.0 0.00 0.30 0.11 94 1011.0
20260505021034 54 0 0.0 1.0 0.00 0.30 0.11 94 1011.0
20260505020534 54 0 0.0 2.0 0.00 0.30 0.11 94 1011.0
20260505020051 54 0 0.0 2.0 0.00 0.30 0.11 94 1011.0
20260505015535 55 298 0.0 1.0 0.00 0.30 0.11 94 1011.0
20260505015038 55 0 0.0 1.0 0.00 0.30 0.11 94 1011.0
20260505014546 55 0 0.0 1.0 0.00 0.30 0.11 94 1011.0
20260505014034 55 0 0.0 2.0 0.00 0.30 0.11 94 1010.9
20260505013535 55 0 0.0 2.0 0.00 0.30 0.11 94 1011.0
20260505013044 55 0 0.0 2.0 0.00 0.30 0.11 94 1011.1
20260505012535 55 0 0.0 1.0 0.00 0.30 0.11 94 1011.1
20260505012035 55 0 0.0 2.0 0.00 0.30 0.11 94 1011.0
20260505011542 55 0 0.0 2.0 0.00 0.30 0.11 94 1011.0
20260505011034 55 0 0.0 2.0 0.00 0.30 0.11 94 1011.0
20260505010534 55 0 0.0 2.0 0.00 0.30 0.11 94 1011.1
20260505010049 55 0 0.0 2.0 0.00 0.30 0.11 94 1011.2
20260505005534 55 0 0.0 2.0 0.00 0.30 0.11 94 1011.2
20260505005035 55 0 0.0 2.0 0.00 0.30 0.11 94 1011.2
20260505004550 55 0 0.0 2.0 0.00 0.30 0.11 94 1011.3
20260505004034 55 0 0.0 1.0 0.00 0.30 0.11 94 1011.3
20260505003534 55 0 0.0 2.0 0.00 0.30 0.11 94 1011.3
20260505003045 55 0 0.0 2.0 0.00 0.30 0.11 94 1011.2
20260505002534 56 0 0.0 2.0 0.00 0.30 0.11 94 1011.2
20260505002035 56 352 0.0 1.0 0.01 0.30 0.11 94 1011.3
20260505001546 56 0 0.0 1.0 0.01 0.30 0.11 94 1011.4
20260505001034 56 0 0.0 1.0 0.02 0.30 0.11 94 1011.4
20260505000539 56 0 0.0 0.0 0.02 0.30 0.11 94 1011.5
20260505000046 56 0 0.0 1.0 0.02 0.30 0.11 93 1011.5
20260504235534 56 0 0.0 1.0 0.03 0.30 0.11 93 1011.5
20260504235034 56 352 0.0 1.0 0.03 0.30 0.11 93 1011.6
20260504234613 56 0 0.0 1.0 0.04 0.30 0.11 93 1011.6
20260504234034 56 0 0.0 0.0 0.04 0.29 0.11 93 1011.5
20260504233534 56 0 0.0 0.0 0.06 0.29 0.11 93 1011.6
20260504233041 56 0 0.0 0.0 0.07 0.29 0.11 93 1011.6
20260504232535 56 0 0.0 0.0 0.07 0.29 0.11 93 1011.6
20260504232034 56 0 0.0 0.0 0.07 0.29 0.10 93 1011.5
20260504231552 56 0 0.0 1.0 0.07 0.29 0.10 93 1011.5
20260504231034 56 0 0.0 1.0 0.07 0.28 0.09 93 1011.5
20260504230535 56 0 0.0 0.0 0.08 0.28 0.09 93 1011.6
20260504230047 56 0 0.0 0.0 0.09 0.28 0.09 93 1011.7
20260504225535 56 0 0.0 1.0 0.08 0.27 0.08 93 1011.7
20260504225035 56 0 0.0 1.0 0.07 0.26 0.07 93 1011.8
20260504224544 57 0 0.0 1.0 0.07 0.25 0.07 93 1011.8
20260504224034 57 0 0.0 1.0 0.07 0.25 0.06 93 1011.7
20260504223534 57 0 0.0 0.0 0.06 0.23 0.04 93 1011.8
20260504223042 57 0 0.0 1.0 0.06 0.22 0.03 93 1011.9
20260504222536 57 0 0.0 1.0 0.07 0.22 0.03 93 1011.9
20260504222035 57 0 0.0 1.0 0.06 0.21 0.02 93 1012.0
20260504221544 57 0 0.0 1.0 0.06 0.21 0.02 93 1012.1
20260504221036 57 0 0.0 1.0 0.05 0.20 0.01 93 1012.1
20260504220534 57 0 0.0 1.0 0.04 0.19 0.00 93 1012.1
20260504220042 57 0 0.0 3.0 0.04 0.18 0.00 92 1012.2
20260504215535 57 0 0.0 3.0 0.04 0.18 0.18 92 1012.2
20260504215035 57 0 0.0 1.0 0.05 0.18 0.18 92 1012.2
20260504214544 57 0 0.0 0.0 0.04 0.18 0.18 92 1012.3
20260504214036 57 0 0.0 0.0 0.04 0.18 0.18 92 1012.3
20260504213534 57 0 0.0 3.0 0.03 0.17 0.17 92 1012.3
20260504213051 57 0 0.0 3.0 0.03 0.16 0.16 92 1012.4
20260504212535 57 0 0.0 2.0 0.01 0.14 0.14 92 1012.5
20260504212037 57 0 0.0 1.0 0.01 0.14 0.14 92 1012.6
20260504211542 57 0 0.0 1.0 0.01 0.14 0.14 92 1012.5
20260504211035 57 0 0.0 0.0 0.02 0.14 0.14 92 1012.5
20260504210534 57 0 0.0 1.0 0.02 0.14 0.14 92 1012.6
20260504210053 57 0 0.0 1.0 0.01 0.14 0.14 92 1012.7
20260504205535 57 0 0.0 0.0 0.01 0.14 0.14 91 1012.5
20260504205035 57 0 0.0 0.0 0.00 0.13 0.13 91 1012.5
20260504204619 57 0 0.0 0.0 0.00 0.13 0.13 91 1012.6
20260504204254 57 0 0.0 0.0 0.00 0.13 0.13 91 1012.5
20260504203535 58 0 0.0 0.0 0.00 0.13 0.13 91 1012.5
20260504203040 58 0 0.0 0.0 0.00 0.13 0.13 91 1012.6
20260504202534 58 0 0.0 0.0 0.00 0.13 0.13 91 1012.4
20260504202035 58 0 0.0 0.0 0.00 0.13 0.13 91 1012.4
20260504201546 58 0 0.0 0.0 0.00 0.13 0.13 91 1012.6
20260504201035 58 0 0.0 0.0 0.00 0.12 0.12 91 1012.5
20260504200535 58 0 0.0 0.0 0.00 0.12 0.12 90 1012.6
20260504200046 58 0 0.0 0.0 0.00 0.12 0.12 90 1012.5
20260504195534 58 0 0.0 0.0 0.00 0.12 0.12 90 1012.5
20260504195036 58 0 0.0 0.0 0.00 0.12 0.12 90 1012.5
20260504194550 58 0 0.0 0.0 0.00 0.12 0.12 90 1012.5
20260504194035 58 0 0.0 0.0 0.00 0.12 0.12 90 1012.4
20260504193535 58 0 0.0 0.0 0.00 0.12 0.12 89 1012.3
20260504193049 58 0 0.0 0.0 0.00 0.12 0.12 89 1012.3
20260504192534 58 0 0.0 0.0 0.01 0.12 0.12 89 1012.3
20260504192034 58 0 0.0 0.0 0.01 0.12 0.12 89 1012.3
20260504191548 58 0 0.0 0.0 0.01 0.12 0.12 88 1012.2
20260504191034 58 0 0.0 0.0 0.03 0.12 0.12 88 1012.3
20260504190534 58 0 0.0 0.0 0.04 0.12 0.12 88 1012.2
20260504190056 58 0 0.0 0.0 0.07 0.12 0.12 88 1012.2
20260504185534 58 0 0.0 0.0 0.07 0.12 0.12 88 1012.1
20260504185035 58 0 0.0 0.0 0.08 0.11 0.11 87 1012.1
20260504184559 58 0 0.0 0.0 0.09 0.11 0.11 87 1012.1
20260504184035 59 0 0.0 0.0 0.09 0.11 0.11 87 1012.1
20260504183534 59 0 0.0 1.0 0.10 0.11 0.11 87 1012.1
20260504183057 59 0 0.0 1.0 0.11 0.11 0.11 87 1012.2
20260504182537 59 0 0.0 0.0 0.11 0.11 0.11 86 1012.1
20260504182034 59 0 0.0 1.0 0.11 0.11 0.11 86 1012.2
20260504181544 59 0 0.0 1.0 0.11 0.11 0.11 86 1012.2
20260504181035 59 0 0.0 3.0 0.09 0.09 0.09 86 1012.1
20260504180535 60 0 0.0 3.0 0.07 0.07 0.07 85 1012.2
20260504180048 60 105 0.0 3.0 0.05 0.05 0.05 85 1012.3
20260504175535 60 0 0.0 2.0 0.03 0.10 0.03 84 1012.3
20260504175033 60 0 0.0 3.0 0.03 0.09 0.03 84 1012.4
20260504174551 60 0 0.0 3.0 0.02 0.08 0.02 83 1012.3
20260504174035 60 0 0.0 2.0 0.01 0.07 0.01 82 1012.4
20260504173534 61 0 0.0 2.0 0.01 0.07 0.01 81 1012.2
20260504173045 61 0 0.0 2.0 0.00 0.07 0.00 81 1012.3
20260504172535 61 0 0.0 2.0 0.00 0.06 0.00 80 1012.1
20260504172036 61 0 0.0 2.0 0.00 0.06 0.00 79 1012.1
20260504171550 61 0 0.0 2.0 0.00 0.06 0.00 78 1012.1
20260504171036 62 0 0.0 2.0 0.00 0.06 0.00 78 1012.1
20260504170535 62 0 0.0 2.0 0.00 0.06 0.00 78 1012.0